Starlink 5174

operational
NORAD ID: 54067 Int'l Des: 2022-136 Owner: SPXS Country: US Constellation: starlink
LEOCIRCULAR

关于 Starlink 5174

正在加载描述...

实时位置

正在加载3D地球...

即将过境

高度历史

Altitude vs Time

uPlot chart will show altitude changes over time

两行轨道根数

1 54067U 22136S 25303.90207514 .00001314 00000-0 10069-3 0 9995
2 54067 53.2195 206.5401 0001516 109.6979 250.4177 15.08828573167255
Epoch: Oct 30, 2025 • Age: 10 hours

当前状态

高度 544.7 km
速度 7.60 km/s
星下点 50.56°N, 165.3°E
发射日期 Oct 20, 2022
运行时间 3 years
类型 internet

技术详情

分类 Payload
质量 305.00 kg
干质量 290.00 kg
总质量 305.00 kg
长度 0.20 m
直径 2.80 m
跨度 9.00 m
形状 Box + pan
制造商 SPXS
平台类型 Starlink
阶段状态 In Orbit
所有者/国家 SPXS/US

大型星座

Loading constellations...